When you browse on this site, cookies collect data to enhance your experience and personalize the content and advertising you see.
Visit our Privacy Policy to learn more. By continuing to use the site, you agree to this use of cookies and data.
  • In United Kingdom
  • List of Countries
  • For 7 days
  • Water Temperature
  • Satellite Maps
  • Weather Map
  • Weather Widgets
  • user-avatar
    Login

    Hourly Weather Ohorodnje

    Today, 19 April, Friday

    Time Temperature Precipitation Wind Pressure Humidity
    00:00 +3°C° 0 mm 6 mps 764 mmHg 60%
    01:00 +3°C° 0 mm 6 mps 764 mmHg 59%
    02:00 +3°C° 0 mm 6 mps 764 mmHg 59%
    03:00 +3°C° 0 mm 6 mps 764 mmHg 58%
    04:00 +3°C° 0 mm 6 mps 764 mmHg 58%
    05:00 +2°C° 0 mm 6 mps 764 mmHg 58%
    06:00 +3°C° 0 mm 7 mps 764 mmHg 54%
    07:00 +4°C° 0 mm 8 mps 764 mmHg 50%
    08:00 +4°C° 0 mm 8 mps 764 mmHg 47%
    09:00 +5°C° 0 mm 8 mps 764 mmHg 46%
    10:00 +6°C° 0 mm 8 mps 764 mmHg 45%
    11:00 +6°C° 0 mm 9 mps 765 mmHg 43%
    12:00 +7°C° 0 mm 8 mps 764 mmHg 44%
    13:00 +7°C° 0 mm 8 mps 764 mmHg 44%
    14:00 +8°C° 0 mm 7 mps 764 mmHg 44%
    15:00 +8°C° 0 mm 7 mps 764 mmHg 46%
    16:00 +8°C° 0 mm 7 mps 764 mmHg 47%
    17:00 +8°C° 0 mm 6 mps 764 mmHg 49%
    18:00 +7°C° 0 mm 6 mps 764 mmHg 50%
    19:00 +7°C° 0 mm 6 mps 764 mmHg 51%
    20:00 +7°C° 0 mm 6 mps 765 mmHg 52%
    21:00 +5°C° 0 mm 7 mps 765 mmHg 52%
    22:00 +5°C° 0 mm 7 mps 765 mmHg 51%
    23:00 +5°C° 0 mm 7 mps 765 mmHg 51%

    Tomorrow, 20 April, Saturday

    Time Temperature Precipitation Wind Pressure Humidity
    00:00 +4°C° 0 mm 7 mps 765 mmHg 51%
    01:00 +4°C° 0 mm 7 mps 765 mmHg 51%
    02:00 +4°C° 0 mm 7 mps 765 mmHg 51%
    03:00 +3°C° 0 mm 7 mps 765 mmHg 52%
    04:00 +3°C° 0 mm 7 mps 765 mmHg 53%
    05:00 +3°C° 0 mm 7 mps 765 mmHg 55%
    06:00 +4°C° 0 mm 7 mps 765 mmHg 52%
    07:00 +5°C° 0 mm 8 mps 765 mmHg 49%
    08:00 +6°C° 0 mm 8 mps 765 mmHg 46%
    09:00 +7°C° 0 mm 8 mps 765 mmHg 44%
    10:00 +8°C° 0 mm 7 mps 765 mmHg 41%
    11:00 +9°C° 0 mm 7 mps 765 mmHg 39%
    12:00 +10°C° 0 mm 7 mps 765 mmHg 39%
    13:00 +10°C° 0 mm 7 mps 765 mmHg 39%
    14:00 +10°C° 0 mm 6 mps 764 mmHg 38%
    15:00 +10°C° 0 mm 6 mps 764 mmHg 40%
    16:00 +10°C° 0 mm 6 mps 764 mmHg 42%
    17:00 +10°C° 0 mm 5 mps 764 mmHg 44%
    18:00 +9°C° 0 mm 5 mps 764 mmHg 47%
    19:00 +8°C° 0 mm 4 mps 765 mmHg 51%
    20:00 +7°C° 0 mm 4 mps 765 mmHg 54%
    21:00 +7°C° 0 mm 4 mps 765 mmHg 56%
    22:00 +7°C° 0 mm 4 mps 765 mmHg 58%
    23:00 +6°C° 0 mm 4 mps 765 mmHg 60%

    Day after tomorrow, 21 April, Sunday

    Time Temperature Precipitation Wind Pressure Humidity
    00:00 +6°C° 0 mm 5 mps 765 mmHg 60%
    01:00 +5°C° 0 mm 5 mps 765 mmHg 61%
    02:00 +5°C° 0 mm 5 mps 765 mmHg 62%
    03:00 +5°C° 0 mm 5 mps 764 mmHg 62%
    04:00 +5°C° 0 mm 5 mps 764 mmHg 61%
    05:00 +3°C° 0 mm 5 mps 764 mmHg 61%
    06:00 +6°C° 0 mm 5 mps 765 mmHg 58%
    07:00 +7°C° 0 mm 6 mps 765 mmHg 54%
    08:00 +8°C° 0 mm 6 mps 765 mmHg 51%
    09:00 +9°C° 0 mm 6 mps 765 mmHg 47%
    10:00 +10°C° 0 mm 6 mps 765 mmHg 42%
    11:00 +11°C° 0 mm 6 mps 765 mmHg 38%
    12:00 +11°C° 0 mm 6 mps 765 mmHg 38%
    13:00 +13°C° 0 mm 6 mps 765 mmHg 38%
    14:00 +13°C° 0 mm 6 mps 764 mmHg 38%
    15:00 +13°C° 0 mm 5 mps 765 mmHg 40%
    16:00 +13°C° 0 mm 5 mps 765 mmHg 42%
    17:00 +12°C° 0 mm 5 mps 765 mmHg 44%
    18:00 +10°C° 0 mm 5 mps 765 mmHg 48%
    19:00 +10°C° 0 mm 5 mps 765 mmHg 51%
    20:00 +9°C° 0 mm 5 mps 765 mmHg 54%
    21:00 +9°C° 0 mm 5 mps 766 mmHg 54%
    22:00 +8°C° 0 mm 5 mps 766 mmHg 54%
    23:00 +8°C° 0 mm 5 mps 766 mmHg 54%

    22 April, Monday

    Time Temperature Precipitation Wind Pressure Humidity
    00:00 +8°C° 0 mm 6 mps 766 mmHg 54%
    01:00 +8°C° 0 mm 6 mps 766 mmHg 53%
    02:00 +8°C° 0 mm 6 mps 766 mmHg 53%
    03:00 +7°C° 0 mm 6 mps 766 mmHg 56%
    04:00 +5°C° 0 mm 6 mps 766 mmHg 58%
    05:00 +5°C° 0 mm 6 mps 766 mmHg 61%
    06:00 +7°C° 0 mm 6 mps 767 mmHg 58%
    07:00 +8°C° 0 mm 6 mps 767 mmHg 55%
    08:00 +9°C° 0 mm 7 mps 767 mmHg 52%
    09:00 +10°C° 0 mm 6 mps 767 mmHg 49%
    10:00 +11°C° 0 mm 6 mps 767 mmHg 45%
    11:00 +13°C° 0 mm 6 mps 767 mmHg 42%
    12:00 +13°C° 0 mm 6 mps 767 mmHg 41%
    13:00 +14°C° 0 mm 6 mps 767 mmHg 41%
    14:00 +14°C° 0 mm 5 mps 767 mmHg 40%
    15:00 +14°C° 0 mm 5 mps 767 mmHg 42%
    16:00 +13°C° 0 mm 5 mps 767 mmHg 44%
    17:00 +13°C° 0 mm 5 mps 767 mmHg 45%
    18:00 +12°C° 0 mm 5 mps 768 mmHg 47%
    19:00 +12°C° 0 mm 5 mps 768 mmHg 48%
    20:00 +10°C° 0 mm 5 mps 768 mmHg 50%
    21:00 +11°C° 0 mm 4 mps 768 mmHg 50%
    22:00 +11°C° 0 mm 4 mps 768 mmHg 51%
    23:00 +10°C° 0 mm 4 mps 769 mmHg 52%

    23 April, Tuesday

    Time Temperature Precipitation Wind Pressure Humidity
    00:00 +10°C° 0 mm 4 mps 769 mmHg 53%
    01:00 +10°C° 0 mm 3 mps 769 mmHg 55%
    02:00 +9°C° 0 mm 3 mps 769 mmHg 57%
    03:00 +8°C° 0 mm 4 mps 769 mmHg 59%
    04:00 +8°C° 0 mm 4 mps 769 mmHg 61%
    05:00 +8°C° 0 mm 4 mps 769 mmHg 63%
    06:00 +10°C° 0 mm 4 mps 770 mmHg 60%
    07:00 +11°C° 0 mm 4 mps 770 mmHg 58%
    08:00 +12°C° 0 mm 5 mps 770 mmHg 55%
    09:00 +12°C° 0 mm 4 mps 770 mmHg 52%
    10:00 +13°C° 0 mm 4 mps 770 mmHg 49%
    11:00 +13°C° 0 mm 3 mps 770 mmHg 46%
    12:00 +13°C° 0 mm 3 mps 770 mmHg 46%
    13:00 +13°C° 0 mm 3 mps 770 mmHg 45%
    14:00 +14°C° 0 mm 2 mps 770 mmHg 45%
    15:00 +14°C° 0 mm 2 mps 770 mmHg 46%
    16:00 +14°C° 0 mm 2 mps 770 mmHg 47%
    17:00 +14°C° 0 mm 2 mps 770 mmHg 49%
    18:00 +14°C° 0 mm 2 mps 770 mmHg 50%
    19:00 +13°C° 0 mm 2 mps 770 mmHg 51%
    20:00 +13°C° 0 mm 2 mps 770 mmHg 52%
    21:00 +13°C° 0 mm 2 mps 770 mmHg 52%
    22:00 +12°C° 0 mm 2 mps 770 mmHg 53%
    23:00 +12°C° 0 mm 2 mps 770 mmHg 53%

    24 April, Wednesday

    Time Temperature Precipitation Wind Pressure Humidity
    00:00 +12°C° 0 mm 2 mps 770 mmHg 55%
    01:00 +10°C° 0 mm 2 mps 770 mmHg 56%
    02:00 +10°C° 0 mm 2 mps 770 mmHg 57%
    03:00 +10°C° 0 mm 2 mps 770 mmHg 59%
    04:00 +9°C° 0 mm 3 mps 770 mmHg 60%
    05:00 +9°C° 0 mm 3 mps 770 mmHg 62%
    06:00 +10°C° 0 mm 3 mps 771 mmHg 58%
    07:00 +12°C° 0 mm 3 mps 771 mmHg 55%
    08:00 +14°C° 0 mm 3 mps 771 mmHg 51%
    09:00 +14°C° 0 mm 3 mps 770 mmHg 49%
    10:00 +16°C° 0 mm 3 mps 770 mmHg 47%
    11:00 +17°C° 0 mm 3 mps 770 mmHg 45%
    12:00 +17°C° 0 mm 3 mps 770 mmHg 44%
    13:00 +17°C° 0 mm 2 mps 769 mmHg 43%
    14:00 +18°C° 0 mm 2 mps 769 mmHg 43%
    15:00 +17°C° 0 mm 2 mps 769 mmHg 44%
    16:00 +17°C° 0 mm 2 mps 769 mmHg 46%
    17:00 +17°C° 0 mm 2 mps 768 mmHg 47%
    18:00 +16°C° 0 mm 2 mps 768 mmHg 50%
    19:00 +15°C° 0 mm 2 mps 768 mmHg 53%
    20:00 +12°C° 0 mm 3 mps 768 mmHg 56%
    21:00 +12°C° 0 mm 3 mps 768 mmHg 58%
    22:00 +12°C° 0 mm 3 mps 768 mmHg 59%
    23:00 +11°C° 0 mm 4 mps 768 mmHg 60%
    Show more